| time (UTC) | temp C | wind direction | speed KPH | gust KPH | rain 1hr cm | rain 24hr cm | rain mn cm | humidity % | barometer mb |
| 20260505112142 | 14 | 136 | 0.0 | 3.2 | 0.00 | 0.00 | 0.00 | 95 | 1009.6 |
| 20260505111121 | 14 | 248 | 0.0 | 0.0 | 0.00 | 0.00 | 0.00 | 96 | 1009.6 |
| 20260505110122 | 12 | 173 | 1.6 | 4.8 | 0.00 | 0.00 | 0.00 | 99 | 1009.6 |
| 20260505102123 | 10 | 225 | 0.0 | 3.2 | 0.00 | 0.00 | 0.00 | 99 | 1009.1 |
| 20260505101122 | 10 | 166 | 0.0 | 3.2 | 0.00 | 0.00 | 0.00 | 99 | 1009.0 |
| 20260505100122 | 10 | 224 | 0.0 | 3.2 | 0.00 | 0.00 | 0.00 | 99 | 1009.0 |
| 20260505095122 | 10 | 108 | 0.0 | 3.2 | 0.00 | 0.00 | 0.00 | 99 | 1008.6 |
| 20260505094124 | 10 | 113 | 0.0 | 0.0 | 0.00 | 0.00 | 0.00 | 99 | 1008.7 |
| 20260505093123 | 10 | 158 | 0.0 | 0.0 | 0.00 | 0.00 | 0.00 | 99 | 1008.8 |
| 20260505092121 | 10 | 161 | 0.0 | 3.2 | 0.00 | 0.00 | 0.00 | 99 | 1008.7 |
| 20260505091142 | 10 | 113 | 0.0 | 0.0 | 0.00 | 0.00 | 0.00 | 99 | 1008.8 |
| 20260505090121 | 10 | 180 | 0.0 | 0.0 | 0.00 | 0.00 | 0.00 | 99 | 1008.8 |
| 20260505085121 | 10 | 243 | 1.6 | 3.2 | 0.00 | 0.00 | 0.00 | 99 | 1008.7 |
| 20260505084121 | 10 | 153 | 1.6 | 3.2 | 0.00 | 0.00 | 0.00 | 99 | 1008.6 |
| 20260505083121 | 11 | 176 | 0.0 | 4.8 | 0.00 | 0.00 | 0.00 | 99 | 1008.7 |
| 20260505082121 | 11 | 209 | 0.0 | 3.2 | 0.00 | 0.00 | 0.00 | 99 | 1008.7 |
| 20260505081121 | 11 | 223 | 1.6 | 4.8 | 0.00 | 0.00 | 0.00 | 99 | 1008.7 |
| 20260505080142 | 11 | 247 | 0.0 | 3.2 | 0.00 | 0.00 | 0.00 | 99 | 1008.7 |
| 20260505075121 | 11 | 242 | 1.6 | 3.2 | 0.00 | 0.00 | 0.00 | 99 | 1008.6 |
| 20260505074121 | 11 | 214 | 1.6 | 4.8 | 0.00 | 0.00 | 0.00 | 99 | 1008.6 |
| 20260505073121 | 11 | 227 | 3.2 | 4.8 | 0.00 | 0.00 | 0.00 | 99 | 1008.6 |
| 20260505072122 | 11 | 209 | 3.2 | 4.8 | 0.00 | 0.00 | 0.00 | 99 | 1008.6 |
| 20260505071123 | 11 | 172 | 3.2 | 6.4 | 0.00 | 0.00 | 0.00 | 99 | 1008.6 |
| 20260505070122 | 11 | 182 | 3.2 | 9.7 | 0.00 | 0.00 | 0.00 | 99 | 1008.6 |
| 20260505065122 | 11 | 253 | 3.2 | 8.0 | 0.00 | 0.00 | 0.00 | 99 | 1008.6 |
| 20260505064122 | 11 | 202 | 3.2 | 6.4 | 0.00 | 0.00 | 0.00 | 99 | 1008.6 |
| 20260505063123 | 11 | 202 | 1.6 | 4.8 | 0.00 | 0.00 | 0.00 | 99 | 1008.8 |
| 20260505062122 | 11 | 215 | 3.2 | 4.8 | 0.00 | 0.00 | 0.00 | 99 | 1008.8 |
| 20260505061122 | 11 | 202 | 3.2 | 6.4 | 0.00 | 0.00 | 0.00 | 99 | 1008.9 |
| 20260505060123 | 11 | 149 | 1.6 | 4.8 | 0.00 | 0.00 | 0.00 | 99 | 1008.9 |
| 20260505055143 | 11 | 178 | 1.6 | 6.4 | 0.00 | 0.00 | 0.00 | 99 | 1008.9 |
| 20260505054122 | 12 | 198 | 3.2 | 6.4 | 0.00 | 0.00 | 0.00 | 99 | 1009.0 |
| 20260505053122 | 12 | 225 | 3.2 | 4.8 | 0.00 | 0.00 | 0.00 | 99 | 1009.1 |
| 20260505052122 | 12 | 215 | 1.6 | 4.8 | 0.00 | 0.00 | 0.00 | 99 | 1009.1 |
| 20260505051121 | 12 | 190 | 1.6 | 4.8 | 0.00 | 0.00 | 0.00 | 98 | 1009.2 |
| 20260505050123 | 12 | 215 | 1.6 | 4.8 | 0.00 | 0.00 | 0.00 | 97 | 1009.2 |
| 20260505041121 | 13 | 237 | 1.6 | 4.8 | 0.00 | 0.00 | 0.00 | 87 | 1009.4 |
| 20260505040121 | 13 | 244 | 3.2 | 4.8 | 0.00 | 0.00 | 0.00 | 86 | 1009.4 |
| 20260505035142 | 13 | 244 | 3.2 | 9.7 | 0.00 | 0.00 | 0.00 | 85 | 1009.4 |
| 20260505034125 | 13 | 236 | 4.8 | 9.7 | 0.00 | 0.00 | 0.00 | 85 | 1009.2 |
| 20260505033123 | 14 | 245 | 4.8 | 8.0 | 0.00 | 0.00 | 0.00 | 85 | 1009.2 |
| 20260505032143 | 13 | 232 | 4.8 | 8.0 | 0.00 | 0.00 | 0.00 | 85 | 1009.5 |
| 20260505031123 | 14 | 197 | 4.8 | 9.7 | 0.00 | 0.00 | 0.00 | 85 | 1009.5 |
| 20260505030121 | 13 | 230 | 4.8 | 8.0 | 0.00 | 0.00 | 0.00 | 86 | 1009.5 |
| 20260505025121 | 13 | 230 | 3.2 | 8.0 | 0.00 | 0.00 | 0.00 | 87 | 1009.6 |
| 20260505024122 | 13 | 220 | 3.2 | 8.0 | 0.00 | 0.00 | 0.00 | 87 | 1009.7 |
| 20260505023143 | 13 | 257 | 4.8 | 9.7 | 0.00 | 0.00 | 0.00 | 87 | 1009.6 |
| 20260505022124 | 13 | 157 | 1.6 | 6.4 | 0.00 | 0.00 | 0.00 | 87 | 1009.7 |
| 20260505021124 | 13 | 230 | 3.2 | 6.4 | 0.00 | 0.00 | 0.00 | 87 | 1009.6 |
| 20260505020122 | 13 | 192 | 1.6 | 6.4 | 0.00 | 0.00 | 0.00 | 86 | 1009.6 |
| 20260505015143 | 13 | 262 | 3.2 | 6.4 | 0.00 | 0.00 | 0.00 | 85 | 1009.6 |
| 20260505014122 | 14 | 215 | 4.8 | 8.0 | 0.00 | 0.00 | 0.00 | 83 | 1009.6 |
| 20260505013122 | 14 | 227 | 3.2 | 8.0 | 0.00 | 0.00 | 0.00 | 83 | 1009.5 |
| 20260505012121 | 14 | 243 | 3.2 | 8.0 | 0.00 | 0.00 | 0.00 | 83 | 1009.2 |
| 20260505011122 | 14 | 228 | 3.2 | 8.0 | 0.00 | 0.00 | 0.00 | 82 | 1009.1 |
| 20260505010121 | 14 | 246 | 4.8 | 9.7 | 0.00 | 0.00 | 0.00 | 83 | 1009.0 |
| 20260505005123 | 14 | 248 | 4.8 | 11.3 | 0.00 | 0.00 | 0.00 | 84 | 1009.0 |
| 20260505004121 | 14 | 239 | 4.8 | 11.3 | 0.00 | 0.00 | 0.00 | 83 | 1008.9 |
| 20260505003121 | 14 | 229 | 6.4 | 12.9 | 0.00 | 0.00 | 0.00 | 83 | 1008.6 |
| 20260505002121 | 15 | 244 | 6.4 | 14.5 | 0.00 | 0.00 | 0.00 | 81 | 1008.5 |
| 20260505001121 | 15 | 256 | 4.8 | 9.7 | 0.00 | 0.00 | 0.00 | 79 | 1008.4 |
| 20260505000122 | 15 | 255 | 4.8 | 11.3 | 0.00 | 0.00 | 0.00 | 79 | 1008.4 |
| 20260504235125 | 15 | 261 | 4.8 | 11.3 | 0.00 | 0.00 | 0.00 | 80 | 1008.2 |
| 20260504234142 | 15 | 196 | 4.8 | 9.7 | 0.00 | 0.00 | 0.00 | 79 | 1008.0 |
| 20260504233121 | 15 | 249 | 6.4 | 14.5 | 0.00 | 0.00 | 0.00 | 79 | 1008.0 |
| 20260504232121 | 15 | 209 | 6.4 | 11.3 | 0.00 | 0.00 | 0.00 | 77 | 1008.0 |
| 20260504231123 | 15 | 251 | 8.0 | 12.9 | 0.00 | 0.00 | 0.00 | 76 | 1007.9 |
| 20260504230124 | 15 | 238 | 4.8 | 9.7 | 0.00 | 0.00 | 0.00 | 76 | 1007.9 |
| 20260504225122 | 15 | 251 | 6.4 | 11.3 | 0.00 | 0.00 | 0.00 | 75 | 1008.0 |
| 20260504224121 | 16 | 228 | 6.4 | 12.9 | 0.00 | 0.00 | 0.00 | 73 | 1007.9 |
| 20260504223127 | 16 | 303 | 6.4 | 12.9 | 0.00 | 0.00 | 0.00 | 72 | 1007.9 |
| 20260504222148 | 17 | 241 | 6.4 | 11.3 | 0.00 | 0.00 | 0.00 | 70 | 1008.1 |
| 20260504221143 | 17 | 211 | 6.4 | 11.3 | 0.00 | 0.00 | 0.00 | 68 | 1008.2 |
| 20260504220123 | 17 | 262 | 6.4 | 14.5 | 0.00 | 0.00 | 0.00 | 67 | 1008.2 |
| 20260504215122 | 17 | 223 | 8.0 | 16.1 | 0.00 | 0.00 | 0.00 | 66 | 1008.2 |
| 20260504214147 | 17 | 251 | 8.0 | 17.7 | 0.00 | 0.00 | 0.00 | 65 | 1008.2 |
| 20260504213122 | 18 | 252 | 8.0 | 14.5 | 0.00 | 0.00 | 0.00 | 63 | 1008.4 |
| 20260504212120 | 19 | 247 | 8.0 | 14.5 | 0.00 | 0.00 | 0.00 | 60 | 1008.4 |
| 20260504211121 | 19 | 227 | 6.4 | 12.9 | 0.00 | 0.00 | 0.00 | 61 | 1008.2 |
| 20260504210123 | 19 | 186 | 9.7 | 19.3 | 0.00 | 0.00 | 0.00 | 59 | 1008.2 |
| 20260504205142 | 20 | 210 | 9.7 | 16.1 | 0.00 | 0.00 | 0.00 | 56 | 1008.2 |
| 20260504204143 | 21 | 242 | 6.4 | 12.9 | 0.00 | 0.00 | 0.00 | 56 | 1008.2 |
| 20260504203122 | 22 | 217 | 8.0 | 12.9 | 0.00 | 0.00 | 0.00 | 56 | 1008.2 |
| 20260504202121 | 21 | 222 | 6.4 | 11.3 | 0.00 | 0.00 | 0.00 | 55 | 1008.2 |
| 20260504201142 | 21 | 233 | 8.0 | 12.9 | 0.00 | 0.00 | 0.00 | 53 | 1008.4 |
| 20260504200142 | 22 | 220 | 6.4 | 9.7 | 0.00 | 0.00 | 0.00 | 54 | 1008.4 |
| 20260504195121 | 22 | 237 | 6.4 | 14.5 | 0.00 | 0.00 | 0.00 | 52 | 1008.4 |
| 20260504194121 | 21 | 229 | 9.7 | 14.5 | 0.00 | 0.00 | 0.00 | 53 | 1008.5 |
| 20260504193144 | 22 | 205 | 8.0 | 12.9 | 0.00 | 0.00 | 0.00 | 53 | 1008.6 |
| 20260504192122 | 22 | 227 | 6.4 | 14.5 | 0.00 | 0.00 | 0.00 | 51 | 1008.8 |
| 20260504191123 | 21 | 217 | 8.0 | 14.5 | 0.00 | 0.00 | 0.00 | 52 | 1008.8 |
| 20260504190123 | 22 | 247 | 8.0 | 14.5 | 0.00 | 0.00 | 0.00 | 49 | 1008.8 |
| 20260504185121 | 22 | 181 | 8.0 | 14.5 | 0.00 | 0.00 | 0.00 | 51 | 1008.9 |
| 20260504184122 | 22 | 253 | 8.0 | 12.9 | 0.00 | 0.00 | 0.00 | 51 | 1009.0 |
| 20260504183122 | 23 | 277 | 6.4 | 12.9 | 0.00 | 0.00 | 0.00 | 48 | 1009.1 |
| 20260504182122 | 22 | 225 | 9.7 | 14.5 | 0.00 | 0.00 | 0.00 | 46 | 1009.1 |
| 20260504181122 | 23 | 280 | 9.7 | 24.1 | 0.00 | 0.00 | 0.00 | 43 | 1009.2 |
| 20260504180122 | 23 | 240 | 9.7 | 16.1 | 0.00 | 0.00 | 0.00 | 42 | 1009.2 |
| 20260504175122 | 22 | 262 | 9.7 | 16.1 | 0.00 | 0.00 | 0.00 | 42 | 1009.2 |
| 20260504174123 | 22 | 229 | 8.0 | 16.1 | 0.00 | 0.00 | 0.00 | 42 | 1009.2 |
| 20260504173122 | 22 | 162 | 11.3 | 16.1 | 0.00 | 0.00 | 0.00 | 41 | 1009.4 |
| 20260504172145 | 22 | 209 | 9.7 | 16.1 | 0.00 | 0.00 | 0.00 | 43 | 1009.7 |
| 20260504171121 | 22 | 195 | 9.7 | 17.7 | 0.00 | 0.00 | 0.00 | 44 | 1009.9 |
| 20260504170142 | 21 | 260 | 8.0 | 19.3 | 0.00 | 0.00 | 0.00 | 44 | 1009.9 |
| 20260504160122 | 21 | 272 | 11.3 | 16.1 | 0.00 | 0.00 | 0.00 | 41 | 1010.6 |
| 20260504151124 | 20 | 244 | 8.0 | 16.1 | 0.00 | 0.00 | 0.00 | 44 | 1011.4 |
| 20260504150121 | 20 | 244 | 11.3 | 20.9 | 0.00 | 0.00 | 0.00 | 44 | 1011.4 |
| 20260504141123 | 19 | 274 | 8.0 | 14.5 | 0.00 | 0.00 | 0.00 | 49 | 1011.6 |
| 20260504140122 | 18 | 275 | 9.7 | 19.3 | 0.00 | 0.00 | 0.00 | 49 | 1011.6 |
| 20260504130122 | 16 | 255 | 11.3 | 17.7 | 0.00 | 0.00 | 0.00 | 55 | 1012.2 |
| 20260504120143 | 14 | 244 | 8.0 | 16.1 | 0.00 | 0.00 | 0.00 | 63 | 1012.5 |